Location: Cactus School
(34.5700°N, 118.0931°W)
Time: 05:58:04
(UTC-08:00)

N. Korean satellite - Pass Details

Date: 15 November 2017
Orbit: 460 x 515 km, 97.2° (Epoch: 18 November)

Event Time Altitude Azimuth Distance (km) Brightness Sun altitude
Rises 18:29:40 0° 190° (S) 2,469 10.4 -21.1°
Reaches altitude 10° 18:31:52 10° 202° (SSW) 1,603 9.6 -21.5°
Maximum altitude 18:34:52 28° 263° (W) 907 8.6 -22.1°
Drops below altitude 10° 18:37:55 10° 324° (NW) 1,629 9.6 -22.8°
Sets 18:40:11 0° 336° (NNW) 2,518 10.4 -23.2°
